This is the latest recevied weather packets stored in our database for station/object KE8RXN. If no packets are shown the sender has not sent any weather packets the latest 10 day(s).
| Time | Temp. | Humidity | Pressure | Rain* | Wind** | Luminosity | Snow |
|---|---|---|---|---|---|---|---|
| 1777852119 | 12.78° C | 63% | 1010.1 hPa | 0 mm | - | 29 W/m² | - |
| 1777851816 | 12.78° C | 62% | 1010.3 hPa | 0 mm | - | 31 W/m² | - |
| 1777851514 | 13.33° C | 62% | 1010.1 hPa | 0 mm | - | 34 W/m² | - |
| 1777851210 | 13.33° C | 62% | 1010.2 hPa | 0 mm | - | 41 W/m² | - |
| 1777850906 | 13.33° C | 62% | 1010.4 hPa | 0 mm | - | 52 W/m² | - |
| 1777850604 | 13.33° C | 61% | 1010.5 hPa | 0 mm | - | 47 W/m² | - |
| 1777850302 | 13.33° C | 61% | 1010.6 hPa | 0 mm | - | 50 W/m² | - |
| 1777849998 | 13.33° C | 61% | 1010.5 hPa | 0 mm | - | 53 W/m² | - |
| 1777849694 | 13.33° C | 61% | 1010.6 hPa | 0 mm | - | 62 W/m² | - |
| 1777849391 | 13.33° C | 60% | 1010.7 hPa | 0 mm | - | 61 W/m² | - |
| 1777849089 | 13.89° C | 60% | 1010.7 hPa | 0 mm | - | 55 W/m² | - |
| 1777848784 | 13.89° C | 60% | 1010.9 hPa | 0 mm | - | 69 W/m² | - |
| 1777848481 | 13.89° C | 60% | 1010.7 hPa | 0 mm | - | 79 W/m² | - |
| 1777848179 | 13.89° C | 60% | 1010.9 hPa | 0 mm | - | 92 W/m² | - |
| 1777847876 | 13.89° C | 60% | 1010.9 hPa | 0 mm | - | 87 W/m² | - |
| 1777847574 | 13.33° C | 60% | 1011.1 hPa | 0 mm | - | 85 W/m² | - |
| 1777847269 | 13.33° C | 60% | 1011.4 hPa | 0 mm | - | 98 W/m² | - |
| 1777846968 | 13.33° C | 61% | 1011.4 hPa | 0 mm | - | 87 W/m² | - |
| 1777846666 | 13.89° C | 60% | 1011.6 hPa | 0 mm | - | 94 W/m² | - |
| 1777846364 | 13.89° C | 60% | 1011.7 hPa | 0 mm | - | 261 W/m² | - |
| 1777846060 | 13.89° C | 62% | 1011.6 hPa | 0 mm | - | 98 W/m² | - |
| 1777845757 | 13.89° C | 61% | 1011.7 hPa | 0 mm | - | 325 W/m² | - |
| 1777845453 | 12.78° C | 63% | 1011.9 hPa | 0 mm | - | 222 W/m² | - |
| 1777845151 | 12.78° C | 65% | 1011.9 hPa | 0 mm | - | 152 W/m² | - |
| 1777844849 | 12.78° C | 65% | 1012.2 hPa | 0 mm | - | 146 W/m² | - |
* Rain latest hour (hover to see other rain measurements)
** Current wind speed in m/s (hover to see current wind gust speed)